STARLINK-1730, 46563

Orbit data source: Space-Track

STARLINK-1730, 46563 is a payload satellite owned by SpaceX/Seattle (US) in LEO that was launched on Tue, 06 Oct 2020 UTC via an FALCON 9 launch vehicle from the Air Force Eastern Test Range (AFETR). Payloads include a variety of satellites, spacecraft, and rockets equipped with specific instruments for various scientific and technological missions. These include communications satellites like Starlink; space stations such as the ISS; scientific satellites like the Hubble; Earth observation satellites from companies like Planet Labs, Umbra, and HawkEye 360; GPS; miniature CubeSats for education and research; and military/defense satellites.

Loading next visibility...
STARLINK-1730 details
Identifier
46563, 2020-070AH
Orbit
LEO
Last TLE update7 hours ago
Origin
Flag of USSpaceX/Seattle (US)
ManufacturerSpaceX/Seattle
MissionOperational Commercial Communications
Bus & MotorSTARLINK, Unknown motor
Mass260 kg wet, ~248 kg dry
Launch date (UTC)
2020-10-06 (4 years ago)
Launch vehicle
FALCON 9
Launch site
Air Force Eastern Test Range (AFETR)
Object type
Payload
Rocket body
Debris
Shape & HBRBox + 1 Pan, 8.86 m
Radar Cross Section13.562 m², Large (>1 m²)

Expand to show TLE details & history

TLE from 7 hours ago
0 STARLINK-1730
1 46563U 20070AH  24361.12517558  .00019044  00000-0  12933-2 0  9991
2 46563  53.0561 325.4141 0001267  92.2190 267.8944 15.06419071233692
Epoch: 2024-12-26T03:00Z
Definitive object data (Epoch: 2024-12-26T03:00:15.17Z)
Latitude-0.00001°
Longitude-174.75818°
Altitude548.065 km
Speed7.589 km/s
True Right ascension21h 41m 39s
True Declination0° 00' 00"
Sunlit
Object was in daylight at TLE epoch
Visualization TLE readout
Latitude24.60293°
Longitude-16.09968°
Altitude547.543 km
Speed7.592 km/s
Apparent Right ascension05h 31m 40s
Apparent Declination-29° 25' 05"
Sunlit
Object is in full shadow
Visualization observer readout
Local Sidereal Time09:22:56
Azimuth227.548° WSW
Elevation2.331°
Doppler factor1
Orbital elements
Apogee altitude548.301 km
Perigee altitude546.546 km
Semi-major axis6,925.561 km
Eccentricity0.0001267
Inclination53.0561°
RAAN325.4141°
Arg. of periapsis92.219°
True anomaly267.87989°
Mean anomaly267.8944°
Eccentric anomaly267.88715°
Mean motion3.76583 °/min
BSTAR0.0012933
Orbital period95.6 mins
Loading maneuver chart data...
Loading historical data...
Loading historical data...
Loading historical data...
Loading historical data...
Loading historical data...
Loading historical data...
Loading historical data...

STARLINK-1730 Visibility forecast

Observer location: undefined°, undefined

Span
Click to sort rows by Start time (UTC) header in descending order
Start Az.
Max El. time (UTC)
Max El. Az.
Max El.
End time (UTC)
End Az.
6 mins2024-12-26 23:51:49.876Z195.162° SSW2024-12-26 23:54:49.876Z130.481° SE31.301°2024-12-26 23:57:49.876Z69.363° E
6 mins2024-12-27 01:31:49.876Z273.708° WNW2024-12-27 01:33:49.876Z314.34° NW28.747°2024-12-27 01:37:49.876Z35.143° NE
6 mins2024-12-27 06:33:49.876Z332.731° NNW2024-12-27 06:35:49.876Z20.683° NNE33.063°2024-12-27 06:39:49.876Z103.428° ESE
5 mins2024-12-27 08:13:49.876Z269.089° W2024-12-27 08:15:49.876Z220.147° SW25.652°2024-12-27 08:18:49.876Z170.362° S
|